Regional Weather Roundup
Issued by NWS Pendleton, OR

Home | Current Version | Previous Version | Text Only | Print | Product List | Glossary On
Versions: 1 2 3 4 5 6 7 8 9 10 11 12 13 14 15 16 17 18 19 20 21 22 23 24 25 26 27 28 29 30 31 32 33 34 35 36 37 38 39 40 41 42 43 44 45 46 47 48 49 50
000
ASUS46 KPDT 040325
RWRPDT
PENDLETON REGIONAL WEATHER ROUNDUP
NATIONAL WEATHER SERVICE PENDLETON OREGON
800 PM PDT FRI JUL 3 2015

NOTE: FAIR INDICATES FEW OR NO CLOUDS BELOW 12,000 FEET WITH NO
SIGNIFICANT WEATHER AND/OR OBSTRUCTIONS TO VISIBILITY.

# INDICATES UNOFFICIAL STATION AND DATA

WAZ520-040410-
EAST SLOPES OF WASHINGTON CASCADES

CITY            SKY/WX      TMP DP  RH  WIND    PRES   REMARKS
#BULLFROG 2SW   N/A         79  49  35  W2      27.49R
#BUMPING DAM    N/A         79  N/A N/A CALM    N/A
#CLE ELUM HS    N/A         84  48  29  W6      29.80S
#CLE ELUM LAKE  N/A         80  52  38  CALM    29.70S
#CLIFFDEL 2NW   N/A         83  44  25  NW5     N/A
#GLENWOOD       N/A         83  58  43  S3      29.69R
#MANASTASH CYN  N/A         82  37  20  CALM    29.86S
#NELSON         N/A         84  53  34  CALM    29.72R
#NELSON 3SW     N/A         79  49  35  NE1     29.90S
#NILE           N/A         85  46  26  W3      29.00R
#RONALD 2NW     N/A         81  51  35  NE2     29.80S
#SNOWDEN        N/A         79  30  17  N3      N/A
#TEANAWAY 4NE   N/A         85  52  32  W2      N/A
#TROUT LAKE 1NE N/A         85  55  36  SW9     29.72R
$$

WAZ521-040410-
SIMCOE HIGHLANDS

CITY            SKY/WX      TMP DP  RH  WIND    PRES   REMARKS
#BICKLETON HS   N/A         87  40  19  W7      N/A
#GOLDENDALE     N/A         91  53  28  W14     N/A    HX 89
#GOLDENDALE 5WNWN/A         86  56  36  W12     29.66R
#GOODNOE HILLS  N/A         91  55  30  W20     N/A    HX 89
#LYLE 6NE       N/A         84  50  31  W14     29.67S
$$

WAZ026-040410-
KITTITAS VALLEY

CITY            SKY/WX      TMP DP  RH  WIND    PRES   REMARKS
ELLENSBURG AP   CLEAR       89  49  25  NW24G31 29.78S
YTC-OPS AREA    N/A         83  39  21  W29G40  29.83S
#ELLENSBURG CWU N/A         88  51  28  NW12    29.62R
#ELLENSBURG 3NE N/A         86  52  31  NW9     29.79R
#KITTITAS 3S    N/A         85  52  32  NW9     29.64S
#THORP 6N       N/A         83  50  32  NW24G36 29.69S
$$

WAZ027-040410-
YAKIMA VALLEY

CITY            SKY/WX      TMP DP  RH  WIND    PRES   REMARKS
SUNNYSIDE AP    CLEAR       89  67  48  NW3     29.67S
YAKIMA AIRPORT  CLEAR       98  47  18  N13     29.71R HX 94
#DONALD 2NE     N/A         94  20   7  N3      28.55R HX 89
#GRANDVIEW      N/A         94  54  26  CALM    29.62F HX 92
#MABTON         N/A         98  55  24  CALM    29.65S HX 96
#MOXEE 2E       N/A         95  18   6  N10     29.61R HX 90
#NACHES 2SW     N/A         88  50  27  W12     29.78F
#OUTLOOK DOT    N/A         N/A N/A N/A NW5     N/A
#SELAH 8E       N/A         92  36  14  N14     N/A    HX 88
#TERRACE HTS    N/A         98  42  15  N3      29.59R HX 94
#TOPPENISH      N/A         97  53  23  CALM    29.54R HX 95
#WAPATO 4NE     N/A         94  20   7  N3      28.55R HX 89
#WEST VALLEY    N/A         93  48  22  N9      29.61R HX 90
#W YAKIMA       N/A         92  50  24  W5      29.63R HX 89
#WHITE SWAN 5E  N/A         96  58  28  N2      29.63R HX 95
#WILEY CITY 3W  N/A         92  42  18  CALM    29.70S HX 88
$$

WAZ028-040410-
LOWER COLUMBIA BASIN...WASHINGTON

CITY            SKY/WX      TMP DP  RH  WIND    PRES   REMARKS
PASCO           CLEAR       102 36  10  SE8     29.65S HX 97
#BASIN CITY 5SW N/A         83  64  53  SE1     29.65F
#BENTON CITY    N/A         101 45  15  SW3     29.52S HX 97
#CONNELL 5N     N/A         99  41  14  SW1     29.61F HX 95
#CONNELL 5NW    N/A         94  57  29  CALM    29.58F HX 93
#ELTOPIA 6NW    N/A         94  60  32  CALM    28.66F HX 94
#KAHLOTUS       N/A         99  33  10  NW6     29.61F HX 94
#KENNEWICK      N/A         79  49  35  W2      27.49R
#KENNEWICK 3S   N/A         98  39  13  CALM    29.62S HX 93
#PASCO-BROADMOORN/A         105 37  10  E1      29.49S HX 100
#PATERSON       N/A         96  59  29  S1      29.60S HX 95
#PROSSER        N/A         101 41  13  SE3     29.60F HX 96
#SAGEMOOR 2W    N/A         96  61  32  CALM    29.47S HX 97
#TOUCHET 2S     N/A         89  68  50  CALM    29.61S
#WEST PASCO     N/A         103 50  17  SE1     29.59F HX 100
$$

WAZ029-040410-
FOOTHILLS OF THE BLUES...WASHINGTON

CITY            SKY/WX      TMP DP  RH  WIND    PRES   REMARKS
WALLA WALLA AP  CLEAR       99  25   7  SW6     29.71S HX 93
#DAYTON SCHOOL  N/A         96  41  15  CALM    29.75S HX 92
#LOWDEN 2SE     N/A         95  61  33  CALM    29.62S HX 96
#PLEASANT VIEW 1N/A         97  34  11  CALM    29.65S HX 92
#PRESCOTT       N/A         95  50  22  CALM    29.60S HX 92
#SUDBURY        N/A         93  N/A N/A CALM    N/A
#WAITSBURG 5S   N/A         95  32  11  CALM    29.71S HX 90
#WAITSBURG 8N   N/A         87  26  11  CALM    29.56S
#WALLA WALLA U  N/A         99  43  15  CALM    29.61S HX 95
#WHITMAN MISSIONN/A         99  56  24  CALM    29.64S HX 98
$$

WAZ030-040410-
BLUE MOUNTAINS...WASHINGTON

CITY            SKY/WX      TMP DP  RH  WIND    PRES   REMARKS
#DIXIE 5SE      N/A         87  45  23  W1      29.80S
$$

ORZ009-041-WAZ024-040410-
COLUMBIA RIVER GORGE

CITY            SKY/WX      TMP DP  RH  WIND    PRES   REMARKS
HOOD RIVER AP   CLEAR       90  45  21  CALM    29.79R HX 86
THE DALLES AP   CLEAR       94  47  20  W10     29.71R HX 90
#ARLINGTON AIRPON/A         92  55  29  W20     31.49S HX 90
#ARLINGTON HS   N/A         95  53  24  CALM    29.54R HX 92
#CELILO DOT     N/A         95  61  33  SW8     N/A    HX 96
#MOSIER 1S      N/A         89  32  13  NW6     29.76S
#MURDOCK        N/A         94  52  24  NW22G32 29.70S HX 91
#RUFUS DOT      N/A         95  61  33  W23     N/A    HX 96

$$

ORZ510-040410-
NORTH CENTRAL OREGON

CITY            SKY/WX      TMP DP  RH  WIND    PRES   REMARKS
#CHENOWITH 1W   N/A         86  47  26  W32     N/A
#COW CYN RST AREN/A         89  N/A N/A W12     N/A
#DUFUR 9E       N/A         85  42  22  W15G24  29.73S
#GRASS VALLEY 1SN/A         87  46  24  NW15    29.71F
#KENT DOT       N/A         88  40  19  NW13    N/A
#MAUPIN SCHOOL  N/A         92  41  17  W10     29.77R HX 88
#MORO SCHOOL    N/A         87  54  32  W8      29.83R
#SHANIKO 5WSW   N/A         86  41  21  W16     N/A
#SHANIKO 4NW    N/A         84  35  17  NW16    N/A
#TYGH VALLEY 2NEN/A         94  37  14  N8      29.68R HX 90
#WAPANITIA AIRPON/A         87  41  20  W9      29.70S
#WASCO DOT      N/A         91  58  33  W16     N/A    HX 90
#WASCO AIRPORT  N/A         89  48  24  W18     N/A
#WASCO 5NE      N/A         88  54  31  N13G24  29.66R
$$

ORZ511-040410-
CENTRAL OREGON

CITY            SKY/WX      TMP DP  RH  WIND    PRES   REMARKS
BEND AIRPORT    N/A         N/A N/A N/A MISG    N/A
MADRAS AIRPORT  CLEAR       90  37  15  N12     29.89R HX 86
PRINEVILLE AP   CLEAR       86  25  11  N9      29.93R
REDMOND AIRPORT CLEAR       88  40  19  NW12    29.92R
#BEND 1SW       N/A         82  47  29  E1      N/A
#BEND-AWBREY    N/A         86  47  26  N3      29.71R
#BEND-KIM LN    N/A         86  48  27  N3      29.93R
#CROOKED RVR RANN/A         90  43  20  NW8     29.70R HX 86
#CULVER         N/A         86  50  29  NW2     29.85R
#LAKE BILLY CHINN/A         91  10   5  W8      29.91R HX 87
#POWELL BUTTE 3EN/A         89  34  14  N9      N/A
#POWELL BUTTE   N/A         83  36  19  NW2     29.59R
#PRINEVILLE 3N  N/A         79  43  28  W8      29.68R
#WARM SPRINGS   N/A         92  49  23  SW8     29.80R HX 89

$$


ORZ509-040410-
EAST SLOPES OF OREGON CASCADES

CITY            SKY/WX      TMP DP  RH  WIND    PRES   REMARKS
#BLUE BOX PASS  N/A         73  13  10  NW3     N/A
#CAMP SHERMAN   N/A         82  44  26  CALM    29.82R
#LA PINE 4NW    N/A         80  47  31  W1      29.78R
#SISTERS AIRPOR N/A         85  55  36  N6      30.17S
#SISTERS ODOT   N/A         86  N/A N/A SE6     N/A
#SISTERS 1NW    N/A         86  44  23  N7      N/A
#SISTERS 3N     N/A         82  41  23  CALM    29.95R
#SUNRIVER       N/A         83  46  27  CALM    29.62R
#TUMALO 3W      N/A         84  47  28  NW13    29.59R
#WANOGA BUTTE D N/A         76  40  27  W3      N/A

$$

ORZ044-040410-
LOWER COLUMBIA BASIN...OREGON

CITY            SKY/WX      TMP DP  RH  WIND    PRES   REMARKS
HERMISTON       CLEAR       101 41  13  CALM    29.66F HX 96
#BOARDMAN SCHOOLN/A         95  55  26  SW7     29.66R HX 93
#BOARDMAN 8SW   N/A         92  59  33  SW9     29.63R HX 91
#ECHO 8SW       N/A         99  49  19  W6      29.69F HX 96
#IONE SCHOOL    N/A         94  48  21  W7      29.71R HX 91
#IRRIGON 4NW    N/A         105 46  14  S1      N/A    HX 101
#UMATILLA SCHOOLN/A         106 64  26  CALM    29.72S HX 110
#UMATILLA       N/A         101 52  20  CALM    29.56F HX 99
$$

ORZ507-040410-
NORTHERN FOOTHILLS OF THE BLUES

CITY            SKY/WX      TMP DP  RH  WIND    PRES   REMARKS
PENDLETON AIRPT CLEAR       95  36  13  NW6     29.74S HX 90
#ADAMS 3WNW     N/A         93  37  14  CALM    29.63S HX 89
#ATHENA         N/A         94  44  18  CALM    29.66S HX 90
#CAYUSE         N/A         96  43  16  W5      29.62S HX 92
#HELIX SCHOOL   N/A         94  41  16  CALM    29.65R HX 90
#HELIX 3N       N/A         94  36  13  W5      29.75S HX 89
#HOLDMAN 6E     N/A         96  37  13  E1      29.46S HX 91
#M-F GROVE ELEM N/A         98  46  17  CALM    29.71F HX 94
#M-FREEWATER 5SEN/A         95  59  30  CALM    29.73S HX 94
#PENDLETON DNTN N/A         94  45  19  CALM    29.69S HX 90
#PDT AQUATIC CTRN/A         96  39  14  NW3     29.77S HX 91
#PDT SUNRIDGE   N/A         99  43  15  CALM    29.73S HX 95
#PENDLETON 7NW  N/A         96  54  25  CALM    27.36S HX 94
#PILOT ROCK     N/A         92  42  18  CALM    29.80S HX 88
#TUTUILLA       N/A         93  42  17  CALM    29.68S HX 89
#UMAPINE 2E     N/A         88  65  47  CALM    29.65S
#WESTON SCHOOL  N/A         93  35  13  NW1     29.64S HX 89

$$

ORZ508-040410-
SOUTHERN FOOTHILLS OF THE BLUES

CITY            SKY/WX      TMP DP  RH  WIND    PRES   REMARKS
#AJAX           N/A         88  42  20  W10     29.78S
#CONDON SCHOOL  N/A         88  41  19  NW7     29.84R
#CONDON 5W      N/A         86  36  17  NW15    29.88S
#FOSSIL SCHOOL  N/A         91  37  15  NW7     29.82R HX 87
#HEPPNER EOC    N/A         93  35  13  W13     29.59S HX 89
#HEPPNER 4NE    N/A         91  24   9  NW6     29.65R HX 87
#LEXINGTON 2SE  N/A         95  45  18  NW3     29.74R HX 91
#RUGGS 5NE      N/A         91  -9   2  W10     30.07S HX 87
#RUGGS 2SW      N/A         89  34  14  NW5     29.67R

$$

ORZ502-503-040410-
BLUE MOUNTAINS

CITY            SKY/WX      TMP DP  RH  WIND    PRES   REMARKS
MEACHAM         CLEAR       81  39  22  CALM    29.94R
#BATTLE MTN DOT N/A         82  55  40  N3      N/A
#HEPPNER 15SE   N/A         82  33  17  CALM    29.88R
#LONG CREEK HS  N/A         80  27  14  CALM    29.87R
#N POWDER DOT   N/A         85  53  33  N8      N/A
#PIKES PEAK     N/A         87  28  12  W5      27.99S
#TOLLGATE       N/A         74  45  35  CALM    29.96S
#TROY SCHOOL    N/A         97  51  21  CALM    29.46R HX 94
#UKIAH          N/A         87  44  22  N2      29.73R
#WESTON 4E      N/A         88  38  17  CALM    29.61S
$$

ORZ505-040410-
JOHN DAY BASIN

CITY            SKY/WX      TMP DP  RH  WIND    PRES   REMARKS
JOHN DAY        CLEAR       89  28  11  NW8     29.91R
#JOHN DAY KJDY  N/A         95  82  66  W5      29.88R HX 119
#DAYVILLE SCHOOLN/A         95  18   6  CALM    29.80R HX 90
#MITCHELL       N/A         93  45  19  CALM    30.04R HX 89
#MONUMENT HS    N/A         95  30  10  N6      29.80R HX 90
#MT. VERNON 5SE N/A         87  30  13  CALM    29.89R
#WINLOCK        N/A         83  39  21  CALM    29.97R
$$

ORZ506-040410-
OCHOCO AND JOHN DAY HIGHLANDS

CITY            SKY/WX      TMP DP  RH  WIND    PRES   REMARKS
#BUCK CREEK DOT N/A         92  92  100 NW12    N/A    HX 143
#HORSE RIDGE DO N/A         87  26  11  NW12    N/A
#KEYES SMT DOT  N/A         88  19   8  NW7     N/A
#PAULINA SCHOOL N/A         92  25   9  NW1     29.92R HX 88
#PRAIRIE CITY   N/A         84  45  26  CALM    29.64R
#SENECA         N/A         83  N/A N/A CALM    N/A
#SENECA 9NW     N/A         81  31  16  CALM    29.66R
$$

ORZ049-040410-
GRANDE RONDE VALLEY

CITY            SKY/WX      TMP DP  RH  WIND    PRES   REMARKS
LA GRANDE       CLEAR       88  41  19  NW9     29.84R
#COVE           N/A         86  53  32  NW1     29.87R
#ELGIN 3N       N/A         88  40  19  CALM    29.83R
#ELGIN 1E       N/A         93  47  21  CALM    N/A    HX 89
#IMBLER SCHOOL  N/A         81  51  35  NW3     29.81R
#ISLAND CITY 4N N/A         85  54  35  CALM    29.83R
#LADD CYN DOT   N/A         92  51  25  W6      N/A    HX 89
#UNION 1S       N/A         92  56  30  CALM    29.57S HX 90
$$

ORZ050-040410-
WALLOWA COUNTY

CITY            SKY/WX      TMP DP  RH  WIND    PRES   REMARKS
JOSEPH AIRPORT  N/A         82  37  20  CALM    29.95S
#IMNAHA SCHOOL  N/A         94  39  15  CALM    29.73R HX 90
#IMNAHA 10S     N/A         76  51  42  SW3     30.01S
#JOSEPH 3N      N/A         85  43  23  W1      29.95S
#JOSEPH 3W      N/A         74  42  32  SW2     29.84R
#LOSTINE        N/A         83  52  34  CALM    29.47S
#MT HOWARD 8000 N/A         69  31  24  NW1     30.28S
#PROMISE 1S     N/A         86  49  28  E2      29.75R
#WALLOWA SCHOOL N/A         91  44  20  CALM    29.82R HX 87



$$



USA.gov is the U.S. government's official web portal to all federal, state and local government web resources and services.